伽利略0223星导航星座 (GSAT0223 (GALILEO 27))

导读 | 星芒AI

GSAT0223(GALILEO 27)是欧洲伽利略卫星导航系统的一部分,由空客防务与航天公司制造。该卫星于2023年发射,运行在中地球轨道(MEO),高度约23,222公里,用于提供高精度的全球定位、导航和授时服务。作为伽利略计划的补充卫星,GALILEO 27增强了系统的可靠性和覆盖范围,支持民用和军用应用。该卫星采用最新技术,具备抗干扰能力和增强的信号稳定性,是欧洲在自主卫星导航领域的重要进展。

基本信息
目录编号:
49809
目录名称:
GALILEO 27 (223)
国际标识:
2021-116A
轨道中心:
EARTH
卫星名称:
伽利略0223星
卫星全名:
伽利略0223星导航星座 (GSAT0223 (GALILEO 27))
卫星状态:
在轨 (已飞行1549 天)
发射日期:
2021-12-05 UTC
国别 :
(ESA)
星等 :
--
轨道信息
数据来源 国际轨道数据
星历时间: 2026-02-17T08:57:26+0800
轨道信息已过期13天
半长轴: 29600.147km
偏心率: 0.0002866
轨道倾角: 57.200°
近地点辐角 278.195°
升交点赤经 344.924°
平近点角 264.636°
近地点: 23213.526km
远地点: 23230.494km
周期: 844.696分钟
每日圈数: 1.704755
详细信息
平衡模式:
三轴稳定
覆盖范围:
全球
运营商:
欧盟空间计划局
运营商所在国:
法国大都会
使用方式:
暂无
卫星简介
伽利略定位系统(Galileo)是一个全球导航卫星系统,于2016年投入使用由欧盟通过ESA创建,由欧盟空间计划局(EUSPA)运营。该系统有两个地面操控站,并且在高纬度地区提供比其他系统更好的定位服务。该卫星仍在工作。
2D轨道图
3D轨道图
轨道高度分析图
轨道倾角分析图
轨道综合分析图
查看轨道综合分析图